This demonstration page uses our WeatherBlox Daily Observations layout. Learn more.

Left ArrowRight Arrow

39.12711, -84.51439

Hourly Observations for September 29, 2022

Temp ( °F °C ) Dew Point ( °F °C ) Humidity (%) Winds ( mph kmh ) Pressure ( in mb ) Visibility ( mi km ) Precip ( " mm )
12:53 am 00:53 Clear 46 7.8 45 7.2 96 96 NE 3 6 30.45 1031 10 16 0.00 0.00
1:53 am 01:53 Clear 42 5.6 42 5.6 100 100 Calm 30.45 1031 8 13 0.00 0.00
2:04 am 02:04 Clear with Mist and Fog 43 6.1 42 5.6 97 97 Calm 30.46 1032 2 2 0.00 0.00
2:15 am 02:15 Clear with Mist and Fog 43 6.1 43 6.1 100 100 Calm 30.46 1032 1 1 0.00 0.00
2:21 am 02:21 Clear with Mist and Fog 44 6.7 43 6.1 96 96 Calm 30.46 1032 3 5 0.00 0.00
2:36 am 02:36 Clear with Mist and Fog 42 5.6 42 5.6 100 100 Calm 30.47 1032 2 2 0.00 0.00
2:44 am 02:44 Clear with Fog 41 5 41 5 100 100 Calm 30.47 1032 1 1 0.00 0.00
2:53 am 02:53 Clear with Mist and Fog 43 6.1 42 5.6 97 97 Calm 30.45 1031 1 2 0.00 0.00
3:00 am 03:00 Clear with Mist and Fog 43 6.1 43 6.1 100 100 Calm 30.46 1032 4 6 0.00 0.00
3:10 am 03:10 Clear with Mist and Fog 41 5 41 5 100 100 NE 3 6 30.47 1032 2 2 0.00 0.00
3:24 am 03:24 Clear with Mist and Fog 43 6.1 42 5.6 97 97 Calm 30.46 1032 3 5 0.00 0.00
3:53 am 03:53 Mostly Clear with Mist and Fog 39 3.9 39 3.9 100 100 Calm 30.45 1031 2 3 0.00 0.00
4:00 am 04:00 Clear with Mist and Fog 40 4.4 39 3.9 97 97 Calm 30.47 1032 1 2 0.00 0.00
4:08 am 04:08 Clear with Fog 40 4.4 39 3.9 97 97 Calm 30.47 1032 0 0 0.00 0.00
4:20 am 04:20 Mostly Clear with Mist and Fog 40 4.4 40 4.4 100 100 Calm 30.47 1032 3 4 0.00 0.00
4:23 am 04:23 Mostly Clear with Mist and Fog 41 5 41 5 100 100 Calm 30.47 1032 1 1 0.00 0.00
4:44 am 04:44 Mostly Clear with Mist and Fog 41 5 41 5 100 100 Calm 30.47 1032 4 6 0.00 0.00
4:53 am 04:53 Clear with Mist and Fog 41 5 40 4.4 96 96 Calm 30.45 1031 5 8 0.00 0.00
5:06 am 05:06 Clear with Mist and Fog 42 5.6 41 5 96 96 Calm 30.47 1032 1 2 0.00 0.00
5:16 am 05:16 Clear with Mist and Fog 40 4.4 39 3.9 97 97 Calm 30.47 1032 4 6 0.00 0.00
5:24 am 05:24 Clear with Mist and Fog 40 4.4 40 4.4 100 100 Calm 30.47 1032 2 3 0.00 0.00
5:36 am 05:36 Clear with Mist and Fog 41 5 40 4.4 96 96 Calm 30.47 1032 3 5 0.00 0.00
5:53 am 05:53 Clear 42 5.6 41 5 96 96 Calm 30.45 1031 8 13 0.00 0.00
6:11 am 06:11 Clear with Mist and Fog 40 4.4 40 4.4 100 100 Calm 30.47 1032 2 3 0.00 0.00
6:26 am 06:26 Clear with Mist and Fog 41 5 41 5 100 100 Calm 30.47 1032 4 6 0.00 0.00
6:53 am 06:53 Clear 41 5 41 5 100 100 NNE 3 6 30.45 1031 10 16 0.00 0.00
7:53 am 07:53 Sunny 42 5.6 41 5 96 96 Calm 30.46 1032 10 16 0.00 0.00
8:53 am 08:53 Mostly Sunny 47 8.3 45 7.2 93 93 Calm 30.47 1032 9 14 0.00 0.00
9:53 am 09:53 Sunny 53 11.7 49 9.4 86 86 E 7 11 30.47 1032 10 16 0.00 0.00
10:53 am 10:53 Mostly Sunny 59 15 50 10 72 72 NE 10 17 30.47 1032 10 16 0.00 0.00
11:53 am 11:53 Mostly Cloudy 62 16.7 47 8.3 58 58 ENE 14 22 30.46 1032 10 16 0.00 0.00
12:53 pm 12:53 Mostly Cloudy 64 17.8 47 8.3 54 54 NE 13 20 30.44 1031 10 16 0.00 0.00
1:53 pm 13:53 Mostly Cloudy 66 18.9 47 8.3 50 50 E 13 20 30.43 1031 10 16 0.00 0.00
2:53 pm 14:53 Mostly Sunny 65 18.3 46 7.8 50 50 ENE 12 19 30.40 1030 10 16 0.00 0.00
3:53 pm 15:53 Mostly Cloudy 64 17.8 46 7.8 52 52 ENE 8 13 30.37 1029 10 16 0.00 0.00
4:53 pm 16:53 Mostly Sunny 66 18.9 46 7.8 48 48 NE 10 17 30.36 1028 10 16 0.00 0.00
5:53 pm 17:53 Sunny 65 18.3 46 7.8 50 50 NE 9 15 30.35 1028 10 16 0.00 0.00
6:53 pm 18:53 Sunny 63 17.2 46 7.8 54 54 ENE 12 19 30.34 1027 10 16 0.00 0.00
7:53 pm 19:53 Clear 56 13.3 46 7.8 69 69 NE 5 7 30.33 1027 10 16 0.00 0.00
8:53 pm 20:53 Clear 52 11.1 48 8.9 86 86 Calm 30.33 1027 10 16 0.00 0.00
9:53 pm 21:53 Clear 50 10 46 7.8 86 86 NE 6 9 30.34 1028 10 16 0.00 0.00
10:53 pm 22:53 Clear 50 10 45 7.2 83 83 ENE 6 9 30.34 1028 10 16 0.00 0.00
11:53 pm 23:53 Clear 48 8.9 44 6.7 86 86 NE 3 6 30.35 1028 10 16 0.00 0.00

Powered by AerisWeather